Regional Weather Roundup
Issued by NWS Columbia, SC

Home | Current Version | Previous Version | Text Only | Print | Product List | Glossary On
Versions: 1 2 3 4 5 6 7 8 9 10 11 12 13 14 15 16 17 18 19 20 21 22 23 24 25 26 27 28 29 30 31 32 33 34 35 36 37 38 39 40 41 42 43 44 45 46 47 48 49 50
000
ASUS42 KCAE 040610
RWRCAE
REGIONAL WEATHER ROUNDUP
NATIONAL WEATHER SERVICE COLUMBIA SC
200 AM EDT SAT JUL 04 2015

NOTE: "FAIR" INDICATES FEW OR NO CLOUDS BELOW 12,000 FEET WITH NO
SIGNIFICANT WEATHER AND/OR OBSTRUCTIONS TO VISIBILITY.

NOT ALL STATIONS ARE QUALITY CONTROLLED BY THE NATIONAL
WEATHER SERVICE. USE DATA WITH CAUTION...ESPECIALLY
DEWPOINT OBSERVATIONS.

SCZ001>056-GAZ040-063>065-077-040700-
...UPSTATE SOUTH CAROLINA...

CITY           SKY/WX    TMP DP  RH WIND       PRES   REMARKS
ANDERSON       MOCLDY    72  67  84 SW6       29.99F
6HR MIN TEMP:  72; 6HR MAX TEMP:  78;

SPARTANBURG      N/A     73  68  83 SW5       29.97F
CLEMSON        MOCLDY    74  66  76 SW5       30.00F
6HR MIN TEMP:  73; 6HR MAX TEMP:  77;

GREENVILLE     MOCLDY    73  64  73 SW7       30.00F
6HR MIN TEMP:  73; 6HR MAX TEMP:  77;

GREENWOOD      MOCLDY    73  69  87 W6        30.00F
6HR MIN TEMP:  73; 6HR MAX TEMP:  78;

GREER          MOCLDY    73  65  75 W5        29.98F
6HR MIN TEMP:  73; 6HR MAX TEMP:  78;

ROCK HILL      MOCLDY    75  65  70 SW9       29.97F
6HR MIN TEMP:  75; 6HR MAX TEMP:  79;

CHESTER        CLOUDY    77  63  61 SW5       29.98F
LAURENS        CLOUDY    73  72  94 SW3       29.98F


...CENTRAL SOUTH CAROLINA...

CITY           SKY/WX    TMP DP  RH WIND       PRES   REMARKS
COLUMBIA APT   PTCLDY    75  70  84 CALM      29.98F
6HR MIN TEMP:  75; 6HR MAX TEMP:  81;

COLUMBIA OWENS PTCLDY    76  70  82 CALM      30.00F
6HR MIN TEMP:  76; 6HR MAX TEMP:  82;

DARLINGTON     MOCLDY    79  66  65 SW12      29.97S
6HR MIN TEMP:  75; 6HR MAX TEMP:  81;

FLORENCE       PTCLDY    77  70  79 SW13      29.97S
6HR MIN TEMP:  76; 6HR MAX TEMP:  81;

MCENTIRE ANGB  PTCLDY    75  70  84 S3        29.99F
6HR MIN TEMP:  74; 6HR MAX TEMP:  81;

ORANGEBURG     PTCLDY    75  69  81 S10       30.02S
6HR MIN TEMP:  72; 6HR MAX TEMP:  81;

SUMTER SHAW    PTCLDY    75  70  83 SW9       29.97F
6HR MIN TEMP:  75; 6HR MAX TEMP:  82;

NEWBERRY       CLOUDY    73  68  83 SW6       30.01F
BARNWELL       LGT RAIN  75  70  83 SW6       30.03S
MANNING        FAIR      77  70  78 S5        30.00F
CAMDEN         FAIR      79  68  69 S9        29.98F
LANCASTER      CLOUDY    75  68  78 SW12      29.97F
WINNSBORO      MOCLDY    75  68  78 SW6       29.99F


...EASTERN AND COASTAL SOUTH CAROLINA...

CITY           SKY/WX    TMP DP  RH WIND       PRES   REMARKS
MYRTLE BEACH   PTCLDY    79  72  78 SW10G16   30.01S
6HR MIN TEMP:  73; 6HR MAX TEMP:  79;

N MYRTLE BCH   CLEAR     80  73  79 SW14G25   29.97F
6HR MIN TEMP:  73; 6HR MAX TEMP:  80;

CONWAY         FAIR      77  75  94 SW8       29.99S FOG
MARION         FAIR      75  68  78 SW5       29.97F
HARTSVILLE     FAIR      77  64  65 SW5       29.97F
FLORENCE       PTCLDY    77  70  79 SW13      29.97S
6HR MIN TEMP:  76; 6HR MAX TEMP:  81;

DARLINGTON     MOCLDY    79  66  65 SW12      29.97S
6HR MIN TEMP:  75; 6HR MAX TEMP:  81;

CHARLESTON APT PTCLDY    79  73  82 SW8       30.02R
6HR MIN TEMP:  76; 6HR MAX TEMP:  80;

MOUNT PLEASANT FAIR      81  73  78 SW8       30.02S
WALTERBORO     MOCLDY    70  66  88 W3G10     30.03S
BEAUFORT       CLEAR     80  74  81 SW6       30.03S
6HR MIN TEMP:  80; 6HR MAX TEMP:  83;



...EASTERN GEORGIA...

CITY           SKY/WX    TMP DP  RH WIND       PRES   REMARKS
AUGUSTA BUSH F LGT RAIN  73  68  84 S7        29.99F
6HR MIN TEMP:  73; 6HR MAX TEMP:  81; 6HR PCP:  0.05;

AUGUSTA DANIEL MOCLDY    76  68  76 CALM      30.01F
6HR MIN TEMP:  76; 6HR MAX TEMP:  82; 6HR PCP: TRACE;

THOMSON        PTCLDY    76  74  96 S5        30.05F
6HR MIN TEMP:  74; 6HR MAX TEMP:  81;

WASHINGTON     FAIR      77  77 100 CALM      30.00F FOG
CLAXTON        FAIR      79  72  78 SW3       30.03F
SYLVANIA       PTCLDY    76  75  97 N6        30.04S
6HR MIN TEMP:  76; 6HR MAX TEMP:  84;

SAVANNAH       CLEAR     79  72  79 SW7       30.03F
6HR MIN TEMP:  79; 6HR MAX TEMP:  86;



...SOUTHERN NORTH CAROLINA...

CITY           SKY/WX    TMP DP  RH WIND       PRES   REMARKS
CHARLOTTE      MOCLDY    74  64  71 SW10      29.96F
6HR MIN TEMP:  74; 6HR MAX TEMP:  79;

MONROE         MOCLDY    75  65  70 SW14      29.96F
6HR MIN TEMP:  75; 6HR MAX TEMP:  78;

WADESBORO      PTCLDY    77  65  66 SW8       29.93F
6HR MIN TEMP:  77; 6HR MAX TEMP:  80;

ROCKINGHAM     MOCLDY    76  67  72 SW9       29.94F
6HR MIN TEMP:  76; 6HR MAX TEMP:  79; 6HR PCP:  0.01;

ASHEVILLE      CLOUDY    69  61  75 SW3       30.03S
6HR MIN TEMP:  67; 6HR MAX TEMP:  75;


$$



USA.gov is the U.S. government's official web portal to all federal, state and local government web resources and services.